This is the latest recevied weather packets stored in our database for station/object NW1E. If no packets are shown the sender has not sent any weather packets the latest 10 day(s).
| Time | Temp. | Humidity | Pressure | Rain* | Wind** | Luminosity | Snow |
|---|---|---|---|---|---|---|---|
| 1777368239 | 19.44° C | 92% | 1017.1 hPa | 0 mm | - | 0 W/m² | - |
| 1777365513 | 19.44° C | 91% | 1016.9 hPa | 0 mm | - | 0 W/m² | - |
| 1777365213 | 19.44° C | 91% | 1016.8 hPa | 0 mm | - | 0 W/m² | - |
| 1777364611 | 20° C | 91% | 1016.8 hPa | 0 mm | - | 0 W/m² | - |
| 1777364253 | 20° C | 91% | 1016.8 hPa | 0 mm | - | 0 W/m² | - |
| 1777361013 | 20° C | 90% | 1017.1 hPa | 0 mm | - | 0 W/m² | - |
| 1777360113 | 20.56° C | 90% | 1017.3 hPa | 0 mm | - | 0 W/m² | - |
| 1777359698 | 20.56° C | 89% | 1017.2 hPa | 0 mm | - | 0 W/m² | - |
| 1777359212 | 20.56° C | 89% | 1017.3 hPa | 0 mm | - | 0 W/m² | - |
| 1777358911 | 20.56° C | 89% | 1017.2 hPa | 0 mm | - | 0 W/m² | - |
| 1777357704 | 20.56° C | 89% | 1017.4 hPa | 0 mm | - | 0 W/m² | - |
| 1777357407 | 20.56° C | 89% | 1017.5 hPa | 0 mm | - | 0 W/m² | - |
| 1777356503 | 20.56° C | 88% | 1017.6 hPa | 0 mm | - | 0 W/m² | - |
| 1777356204 | 21.11° C | 88% | 1017.7 hPa | 0 mm | - | 0 W/m² | - |
| 1777354699 | 21.11° C | 87% | 1018 hPa | 0 mm | - | 0 W/m² | - |
| 1777354402 | 21.67° C | 87% | 1018.1 hPa | 0 mm | - | 0 W/m² | - |
| 1777351700 | 22.22° C | 84% | 1018.3 hPa | 0 mm | - | 0 W/m² | - |
| 1777351098 | 22.22° C | 84% | 1018.2 hPa | 0 mm | - | 0 W/m² | - |
| 1777350799 | 22.22° C | 83% | 1018.2 hPa | 0 mm | - | 0 W/m² | - |
| 1777347799 | 23.33° C | 81% | 1018.1 hPa | 0 mm | - | 0 W/m² | - |
| 1777342094 | 24.44° C | 77% | 1017.6 hPa | 0 mm | - | 0 W/m² | - |
| 1777341795 | 25° C | 77% | 1017.6 hPa | 0 mm | - | 0 W/m² | - |
| 1777341495 | 25° C | 76% | 1017.5 hPa | 0 mm | - | 0 W/m² | - |
| 1777340593 | 25.56° C | 75% | 1017.2 hPa | 0 mm | - | 0 W/m² | - |
| 1777338981 | 25.56° C | 73% | 1016.7 hPa | 0 mm | - | 0 W/m² | - |
* Rain latest hour (hover to see other rain measurements)
** Current wind speed in m/s (hover to see current wind gust speed)